Lexington Weather

Lexington, Massachusetts, USA

70°F
8/17/2022 6:46pm 
  • Lexington Conditions: Overcast
  • Temperature: 69.8°F / 21.0°CColder 0.2°F than last hour.
  • Dew Point: 57.9°FDecreased 1.1°Fsince last hour.
  • Relative Humidity: 66%Decreased 2.0% since last hour.
  • Wind: Calm, 10-min avg: Calm, gust: 2 mph
  • Barometer: 29.85 in Steady
  • Visibility: 10 miles
  • Rain Today: 0.00 in
  •   

Regional Weather Roundup
for Boston, MA

        
000
ASUS41 KBOX 161810
RWRBOX

REGIONAL WEATHER ROUNDUP
NATIONAL WEATHER SERVICE BOSTON/NORTON MA
200 PM EDT TUE AUG 16 2022

NOTE:  "FAIR" INDICATES FEW OR NO CLOUDS BELOW 12,000 FEET WITH NO 
SIGNIFICANT WEATHER AND/OR OBSTRUCTIONS TO VISIBILITY.

MAZALL-161900-
EASTERN MASSACHUSETTS
  
CITY           SKY/WX    TMP DP  RH WIND       PRES   REMARKS
BOSTON         PTSUNNY   76  57  51 E13       30.06S                  
6HR MIN TEMP:  71; 6HR MAX TEMP:  77;                                

BEVERLY        SUNNY     77  55  46 NE8G16    30.06S                  
LAWRENCE       MOSUNNY   81  50  34 E13G23    30.08S                  
BEDFORD        PTSUNNY   83  54  36 E17       30.04S                  
BLUE HILL      NOT AVBL                                               
NORWOOD        SUNNY     78  50  37 E13       30.05S                  
MARSHFIELD     PTSUNNY   73  64  73 N10G17    30.04F                  
PLYMOUTH       CLOUDY    72  62  71 NE12      30.04S                  
TAUNTON          N/A    N/A N/A N/A MISG      30.02F                  
NEW BEDFORD    PTSUNNY   76  61  59 NE16      30.01F                  
$$

MAZALL-161900-
CAPE COD AND THE ISLANDS
  
CITY           SKY/WX    TMP DP  RH WIND       PRES   REMARKS
FALMOUTH       NOT AVBL                                               
HYANNIS        MOSUNNY   77  62  59 N15G21    30.00S                  
CHATHAM        CLOUDY    73  63  70 NE8G17    30.02F                  
NANTUCKET      CLOUDY    74  63  68 NE14      30.00S                  
MARTHAS VNYRD  CLOUDY    76  60  57 NE17      30.00F                  
$$
 
MAZALL-161900-
CENTRAL AND WESTERN MASSACHUSETTS
  
CITY           SKY/WX    TMP DP  RH WIND       PRES   REMARKS
WORCESTER      PTSUNNY   78  51  38 E7G20     30.07S                  
6HR MIN TEMP:  65; 6HR MAX TEMP:  80;                                

FITCHBURG      MOSUNNY   81  45  28 E10G18    30.06F                  
ORANGE         MOSUNNY   83  50  31 E9G18     30.06F                  
SPRINGFIELD    PTSUNNY   83  44  25 NE17      30.01F                  
WESTFIELD      SUNNY     85  46  25 NE12G20   30.03F                  
NORTH ADAMS    SUNNY     81  51  35 E10G17    30.06F                  
PITTSFIELD     SUNNY     81  47  30 VRB7      30.06F                  
$$
 
RIZALL-161900-
RHODE ISLAND
  
CITY           SKY/WX    TMP DP  RH WIND       PRES   REMARKS
PROVIDENCE     PTSUNNY   81  56  42 NE17      30.03S                  
6HR MIN TEMP:  69; 6HR MAX TEMP:  83;                                

NEWPORT        PTSUNNY   77  58  51 NE13      30.01F                  
BLOCK ISLAND   PTSUNNY   74  59  59 NE12G21   30.01F                  
SMITHFIELD     SUNNY     78  55  44 NE12G17   30.05R                  
WESTERLY       MOSUNNY   82  55  39 NE12G20   30.00F                  
$$
 
CTZALL-161900-
CONNECTICUT
  
CITY           SKY/WX    TMP DP  RH WIND       PRES   REMARKS
BRADLEY INTL   PTSUNNY   85  50  29 NE16G23   30.02F                  
6HR MIN TEMP:  64; 6HR MAX TEMP:  85;                                

HARTFORD       MOSUNNY   86  49  27 NE10G25   30.00F                  
BRIDGEPORT     SUNNY     77  57  50 S8        30.00F                  
DANBURY        MOSUNNY   82  50  32 E14G25    30.03F                  
GROTON         MOSUNNY   83  55  38 SE13G22   29.99F                  
NEW HAVEN      MOSUNNY   82  62  50 S10       30.01F                  
CHESTER        PTSUNNY   82  52  34 NE8G14    30.02S                  
MERIDEN        MOSUNNY   84  49  29 NE10G20   30.00F                  
WILLIMANTIC    MOSUNNY   81  50  33 E10       30.01F                  
OXFORD         MOSUNNY   79  54  41 NE10G18   30.04F                  
$$

MEZ002-015-021-024-NHZ003-005-008-011-012-014-VTZ005-008-161900-
NORTHERN NEW ENGLAND
  
CITY           SKY/WX    TMP DP  RH WIND       PRES   REMARKS
PORTLAND ME    MOSUNNY   77  53  43 E13       30.09S                  
6HR MIN TEMP:  66; 6HR MAX TEMP:  80;                                

BANGOR ME      PTSUNNY   82  54  37 E12       30.08F                  
CONCORD NH     MOSUNNY   83  50  31 E10       30.06F                  
MANCHESTER NH  PTSUNNY   83  49  30 NE8G22    30.05F                  
NASHUA NH      MOSUNNY   82  52  35 E14       30.07S                  
PORTSMOUTH NH  PTSUNNY   79  46  30 E15       30.07F                  
JAFFREY NH     MOSUNNY   80  48  32 CALM      30.09F                  
KEENE NH       MOSUNNY   80  53  39 NE8         N/A                   
BURLINGTON VT  PTSUNNY   83  60  45 N8        30.08F                  
MT. WASHINGTON NOT AVBL                                               
$$

NYZ052-076-161900-
EASTERN NEW YORK
  
CITY           SKY/WX    TMP DP  RH WIND       PRES   REMARKS
ALBANY         PTSUNNY   84  55  36 CALM      30.04F                  
6HR MIN TEMP:  65; 6HR MAX TEMP:  84;                                

NEW YORK CITY  PTSUNNY   82  52  35 E13       30.01F                  
6HR MIN TEMP:  69; 6HR MAX TEMP:  82;                                

$$
 
ANZALL-161900-
MARINE OBSERVATIONS
  
STATION/POSITION TIME  TEMP    WIND        PRES    VSBY  WAVE
                       AIR SEA DIR/SP/G                  HT/PER
                 (UTC) (F)     (DEG/KT/KT) (MB)    (MI)  (FT/S)
BOSTON BUOY      NOT AVBL
BUZZARDS BAY     NOT AVBL
NANTUCKET SOUND  NOT AVBL
MASS BAY-STELLWA NOT AVBL
ISLE OF SHOALS   NOT AVBL
S OF BLOCK IS    NOT AVBL
$$

......................KEY.........................
  SKY/WX - SKY CONDITION/PRESENT WEATHER
  TMP    - TEMPERATURE IN FAHRENHEIT
  DWPT   - DEWPOINT IN FAHRENHEIT
  RH     - RELATIVE HUMIDITY IN PERCENT
  WIND   - DIRECTION AND SPEED IN MPH
  PRES   - MEAN SEA LEVEL PRESSURE IN INCHES OF HG
  WCI    - WIND CHILL INDEX
  VSB    - VISIBILITY IN MILES
  HX     - HEAT INDEX
  TC     - TEMPERATURE IN CELSIUS
  VRB    - VARIABLE WIND DIRECTION
  N/A    - NOT AVAILABLE
  
      

Other recent Regional Weather Roundups

Wed Aug 17, 6:10pm

Wed Aug 17, 5:10pm

Wed Aug 17, 4:10pm

Wed Aug 17, 3:10pm

Wed Aug 17, 2:10pm

Wed Aug 17, 1:10pm

Wed Aug 17, 12:10pm

Wed Aug 17, 11:10am

Wed Aug 17, 10:10am

Wed Aug 17, 9:10am

Wed Aug 17, 8:10am

Wed Aug 17, 7:10am

Wed Aug 17, 6:10am

Wed Aug 17, 5:10am

Wed Aug 17, 4:10am

Wed Aug 17, 3:10am

Wed Aug 17, 2:10am

Wed Aug 17, 1:10am

Wed Aug 17, 12:10am

Tue Aug 16, 11:10pm

Tue Aug 16, 10:10pm

Tue Aug 16, 9:10pm

Tue Aug 16, 8:10pm

Tue Aug 16, 7:10pm

Tue Aug 16, 6:10pm

Tue Aug 16, 5:10pm

Tue Aug 16, 4:10pm

Tue Aug 16, 3:10pm

Tue Aug 16, 1:10pm

Tue Aug 16, 12:10pm

Tue Aug 16, 11:10am

Tue Aug 16, 10:10am

Tue Aug 16, 9:10am

Tue Aug 16, 8:10am

Tue Aug 16, 7:10am

Tue Aug 16, 6:10am

Tue Aug 16, 5:10am

Tue Aug 16, 4:10am

Tue Aug 16, 3:10am

Tue Aug 16, 2:10am

Tue Aug 16, 1:10am

Tue Aug 16, 12:10am

Mon Aug 15, 11:10pm

Mon Aug 15, 10:10pm

Mon Aug 15, 9:10pm

Mon Aug 15, 8:10pm

Mon Aug 15, 7:10pm

Mon Aug 15, 6:10pm

Mon Aug 15, 5:10pm

Mon Aug 15, 4:10pm

Mon Aug 15, 3:10pm

Mon Aug 15, 2:10pm

Mon Aug 15, 1:10pm

Mon Aug 15, 12:10pm

Mon Aug 15, 11:10am

Mon Aug 15, 10:10am

Mon Aug 15, 9:10am

Mon Aug 15, 8:10am

Mon Aug 15, 7:10am

Mon Aug 15, 6:10am

Mon Aug 15, 5:10am

Mon Aug 15, 4:10am

Mon Aug 15, 3:10am

Mon Aug 15, 2:10am

Mon Aug 15, 1:10am

Mon Aug 15, 12:10am

Sun Aug 14, 11:10pm

Sun Aug 14, 10:10pm

Sun Aug 14, 9:10pm

Sun Aug 14, 8:10pm

Sun Aug 14, 7:10pm

Sun Aug 14, 6:10pm

Sun Aug 14, 5:10pm

Sun Aug 14, 4:10pm

Sun Aug 14, 3:10pm

Sun Aug 14, 2:10pm

Sun Aug 14, 1:10pm

Sun Aug 14, 12:10pm

Sun Aug 14, 11:10am

Sun Aug 14, 10:10am

Sun Aug 14, 9:10am

Sun Aug 14, 8:10am

Sun Aug 14, 7:10am

Sun Aug 14, 6:10am

Sun Aug 14, 5:10am

Sun Aug 14, 4:10am

Sun Aug 14, 3:10am

Sun Aug 14, 2:10am

Sun Aug 14, 1:10am

Sun Aug 14, 12:10am

Sat Aug 13, 11:10pm

Sat Aug 13, 10:10pm

Sat Aug 13, 9:10pm

Sat Aug 13, 8:10pm

Sat Aug 13, 7:10pm

Sat Aug 13, 6:10pm

Sat Aug 13, 5:10pm

Sat Aug 13, 4:10pm

Sat Aug 13, 3:10pm

Sat Aug 13, 2:10pm

Sat Aug 13, 1:10pm

Sat Aug 13, 12:10pm

Sat Aug 13, 11:10am

Sat Aug 13, 10:10am

Sat Aug 13, 9:10am

Sat Aug 13, 8:10am

Sat Aug 13, 7:10am

Sat Aug 13, 6:10am

Sat Aug 13, 5:10am

Sat Aug 13, 4:10am

Sat Aug 13, 3:10am

Sat Aug 13, 2:10am

Sat Aug 13, 1:10am

Sat Aug 13, 12:10am

Fri Aug 12, 11:10pm

Fri Aug 12, 10:10pm

Fri Aug 12, 9:10pm

Fri Aug 12, 8:10pm

Fri Aug 12, 7:10pm

Fri Aug 12, 6:10pm

Fri Aug 12, 5:10pm

Fri Aug 12, 4:10pm

Fri Aug 12, 3:10pm

Fri Aug 12, 2:10pm

Fri Aug 12, 1:10pm

Fri Aug 12, 12:10pm

Fri Aug 12, 11:10am

Fri Aug 12, 10:10am

Fri Aug 12, 9:10am

Fri Aug 12, 8:10am

Fri Aug 12, 7:10am

Fri Aug 12, 6:10am

Fri Aug 12, 5:10am

Fri Aug 12, 4:10am

Fri Aug 12, 3:10am

Fri Aug 12, 2:10am

Fri Aug 12, 1:10am

Fri Aug 12, 12:10am

Thu Aug 11, 11:10pm

Thu Aug 11, 10:10pm

Thu Aug 11, 9:10pm

Thu Aug 11, 8:10pm

Thu Aug 11, 7:10pm

Thu Aug 11, 6:10pm

Thu Aug 11, 5:10pm

Thu Aug 11, 4:10pm

Thu Aug 11, 3:10pm

Thu Aug 11, 2:10pm

Thu Aug 11, 1:10pm

Thu Aug 11, 12:10pm

Thu Aug 11, 11:10am

Thu Aug 11, 10:10am

Thu Aug 11, 9:10am

Thu Aug 11, 8:10am

Thu Aug 11, 7:10am

Thu Aug 11, 6:10am

Thu Aug 11, 5:10am

Thu Aug 11, 4:10am

Thu Aug 11, 3:10am

Thu Aug 11, 2:10am

Thu Aug 11, 1:10am

Thu Aug 11, 12:10am

Wed Aug 10, 11:10pm

Wed Aug 10, 10:10pm

Wed Aug 10, 9:10pm

Wed Aug 10, 8:10pm

Wed Aug 10, 7:10pm

Meta data:

ID: 3349b9d5-1d3a-4b2f-95f0-39b3765f924e
Link: https://api.weather.gov/products/3349b9d5-1d3a-4b2f-95f0-39b3765f924e